When you browse on this site, cookies collect data to enhance your experience and personalize the content and advertising you see.
Visit our Privacy Policy to learn more. By continuing to use the site, you agree to this use of cookies and data.
  • In Spain
  • List of Countries
  • For 7 days
  • Water Temperature
  • Weather Map
  • Weather Widgets
  • user-avatar
    Login

    Hourly Weather Melbourne

    Today, 1 April, Wednesday

    Time Temperature Precipitation Wind Pressure Humidity
    00:00 +16°C° 0 mm 1 mps 762 mmHg 66%
    01:00 +15°C° 0 mm 1 mps 762 mmHg 67%
    02:00 +15°C° 0 mm 1 mps 762 mmHg 68%
    03:00 +15°C° 0 mm 1 mps 762 mmHg 68%
    04:00 +14°C° 0 mm 1 mps 761 mmHg 67%
    05:00 +13°C° 0 mm 0 mps 762 mmHg 67%
    06:00 +13°C° 0 mm 0 mps 762 mmHg 68%
    07:00 +13°C° 0 mm 0 mps 762 mmHg 68%
    08:00 +16°C° 0 mm 0 mps 762 mmHg 60%
    09:00 +18°C° 0 mm 0 mps 762 mmHg 52%
    10:00 +21°C° 0 mm 0 mps 762 mmHg 43%
    11:00 +24°C° 0 mm 1 mps 761 mmHg 40%
    12:00 +25°C° 0 mm 1 mps 761 mmHg 37%
    13:00 +27°C° 0 mm 1 mps 760 mmHg 34%
    14:00 +27°C° 0 mm 2 mps 760 mmHg 35%
    15:00 +26°C° 0 mm 2 mps 759 mmHg 35%
    16:00 +26°C° 0 mm 2 mps 759 mmHg 36%
    17:00 +24°C° 0 mm 2 mps 759 mmHg 43%
    18:00 +23°C° 0 mm 2 mps 759 mmHg 49%
    19:00 +20°C° 0 mm 2 mps 759 mmHg 56%
    20:00 +20°C° 0 mm 2 mps 759 mmHg 58%
    21:00 +20°C° 0 mm 2 mps 759 mmHg 61%
    22:00 +19°C° 0 mm 2 mps 760 mmHg 63%
    23:00 +20°C° 0.1 mm 1 mps 759 mmHg 65%

    Tomorrow, 2 April, Thursday

    Time Temperature Precipitation Wind Pressure Humidity
    00:00 +20°C° 0.1 mm 1 mps 758 mmHg 68%
    01:00 +17°C° 0.1 mm 0 mps 758 mmHg 70%
    02:00 +19°C° 0.8 mm 1 mps 757 mmHg 75%
    03:00 +18°C° 0.8 mm 1 mps 757 mmHg 80%
    04:00 +18°C° 0.8 mm 1 mps 756 mmHg 86%
    05:00 +18°C° 0.3 mm 1 mps 756 mmHg 87%
    06:00 +18°C° 0.3 mm 1 mps 756 mmHg 87%
    07:00 +18°C° 0.3 mm 1 mps 756 mmHg 88%
    08:00 +18°C° 0.1 mm 1 mps 756 mmHg 86%
    09:00 +18°C° 0.1 mm 1 mps 755 mmHg 84%
    10:00 +18°C° 0.1 mm 2 mps 755 mmHg 82%
    11:00 +18°C° 0.2 mm 2 mps 755 mmHg 81%
    12:00 +19°C° 0.2 mm 2 mps 754 mmHg 79%
    13:00 +20°C° 0.2 mm 2 mps 753 mmHg 77%
    14:00 +20°C° 0.8 mm 2 mps 753 mmHg 74%
    15:00 +21°C° 0.8 mm 3 mps 753 mmHg 70%
    16:00 +22°C° 0.8 mm 3 mps 752 mmHg 67%
    17:00 +21°C° 0.9 mm 3 mps 752 mmHg 72%
    18:00 +20°C° 0.9 mm 3 mps 753 mmHg 77%
    19:00 +19°C° 0.9 mm 3 mps 753 mmHg 82%
    20:00 +18°C° 0.1 mm 3 mps 753 mmHg 84%
    21:00 +18°C° 0.1 mm 2 mps 754 mmHg 86%
    22:00 +18°C° 0.1 mm 1 mps 754 mmHg 88%
    23:00 +18°C° 0 mm 1 mps 754 mmHg 88%

    Day after tomorrow, 3 April, Friday

    Time Temperature Precipitation Wind Pressure Humidity
    00:00 +18°C° 0 mm 1 mps 754 mmHg 88%
    01:00 +18°C° 0 mm 1 mps 754 mmHg 88%
    02:00 +16°C° 0 mm 2 mps 753 mmHg 87%
    03:00 +16°C° 0 mm 2 mps 753 mmHg 87%
    04:00 +16°C° 0 mm 2 mps 752 mmHg 87%
    05:00 +16°C° 0 mm 2 mps 752 mmHg 86%
    06:00 +16°C° 0 mm 3 mps 752 mmHg 84%
    07:00 +16°C° 0 mm 3 mps 753 mmHg 83%
    08:00 +18°C° 0 mm 4 mps 752 mmHg 75%
    09:00 +19°C° 0 mm 4 mps 752 mmHg 68%
    10:00 +21°C° 0 mm 5 mps 752 mmHg 61%
    11:00 +23°C° 0 mm 5 mps 751 mmHg 53%
    12:00 +25°C° 0 mm 5 mps 750 mmHg 45%
    13:00 +27°C° 0 mm 5 mps 750 mmHg 38%
    14:00 +27°C° 0 mm 6 mps 749 mmHg 39%
    15:00 +26°C° 0 mm 6 mps 748 mmHg 41%
    16:00 +26°C° 0 mm 6 mps 747 mmHg 42%
    17:00 +24°C° 0.1 mm 6 mps 747 mmHg 49%
    18:00 +22°C° 0.1 mm 6 mps 747 mmHg 56%
    19:00 +20°C° 0.1 mm 6 mps 747 mmHg 63%
    20:00 +20°C° 0.6 mm 6 mps 747 mmHg 68%
    21:00 +18°C° 0.6 mm 7 mps 747 mmHg 73%
    22:00 +17°C° 0.6 mm 7 mps 747 mmHg 78%
    23:00 +16°C° 4.6 mm 6 mps 747 mmHg 77%

    4 April, Saturday

    Time Temperature Precipitation Wind Pressure Humidity
    00:00 +15°C° 4.6 mm 6 mps 746 mmHg 76%
    01:00 +14°C° 4.6 mm 6 mps 746 mmHg 75%
    02:00 +14°C° 0.7 mm 5 mps 747 mmHg 76%
    03:00 +14°C° 0.7 mm 5 mps 747 mmHg 76%
    04:00 +13°C° 0.7 mm 4 mps 747 mmHg 76%
    05:00 +13°C° 0.2 mm 5 mps 747 mmHg 77%
    06:00 +13°C° 0.2 mm 5 mps 748 mmHg 77%
    07:00 +11°C° 0.2 mm 6 mps 748 mmHg 77%
    08:00 +13°C° 0.2 mm 6 mps 749 mmHg 71%
    09:00 +14°C° 0.2 mm 6 mps 749 mmHg 65%
    10:00 +15°C° 0.2 mm 6 mps 749 mmHg 59%
    11:00 +15°C° 0.2 mm 7 mps 749 mmHg 57%
    12:00 +15°C° 0.2 mm 8 mps 750 mmHg 55%
    13:00 +15°C° 0.2 mm 9 mps 750 mmHg 53%
    14:00 +13°C° 0.7 mm 9 mps 750 mmHg 58%
    15:00 +13°C° 0.7 mm 9 mps 750 mmHg 62%
    16:00 +12°C° 0.7 mm 10 mps 750 mmHg 67%
    17:00 +11°C° 0.4 mm 9 mps 751 mmHg 66%
    18:00 +10°C° 0.4 mm 8 mps 752 mmHg 65%
    19:00 +9°C° 0.4 mm 7 mps 754 mmHg 65%
    20:00 +9°C° 0 mm 6 mps 754 mmHg 65%
    21:00 +8°C° 0 mm 6 mps 755 mmHg 65%
    22:00 +8°C° 0 mm 6 mps 756 mmHg 65%
    23:00 +8°C° 0 mm 6 mps 756 mmHg 66%

    5 April, Sunday

    Time Temperature Precipitation Wind Pressure Humidity
    00:00 +8°C° 0 mm 5 mps 756 mmHg 68%
    01:00 +8°C° 0 mm 5 mps 756 mmHg 70%
    02:00 +8°C° 0 mm 5 mps 756 mmHg 70%
    03:00 +8°C° 0 mm 5 mps 756 mmHg 70%
    04:00 +8°C° 0 mm 5 mps 756 mmHg 70%
    05:00 +8°C° 0 mm 6 mps 757 mmHg 70%
    06:00 +8°C° 0 mm 6 mps 757 mmHg 70%
    07:00 +8°C° 0 mm 6 mps 757 mmHg 71%
    08:00 +10°C° 0 mm 7 mps 757 mmHg 66%
    09:00 +11°C° 0 mm 7 mps 757 mmHg 60%
    10:00 +13°C° 0 mm 8 mps 756 mmHg 55%
    11:00 +13°C° 0 mm 8 mps 756 mmHg 55%
    12:00 +15°C° 0 mm 9 mps 756 mmHg 56%
    13:00 +15°C° 0 mm 9 mps 756 mmHg 56%
    14:00 +15°C° 0.8 mm 8 mps 756 mmHg 63%
    15:00 +13°C° 0.8 mm 8 mps 756 mmHg 69%
    16:00 +14°C° 0.8 mm 7 mps 756 mmHg 76%
    17:00 +12°C° 0.4 mm 7 mps 757 mmHg 75%
    18:00 +13°C° 0.4 mm 6 mps 758 mmHg 74%
    19:00 +13°C° 0.4 mm 6 mps 759 mmHg 73%
    20:00 +13°C° 0.1 mm 5 mps 760 mmHg 73%
    21:00 +12°C° 0.1 mm 5 mps 761 mmHg 74%
    22:00 +12°C° 0.1 mm 4 mps 761 mmHg 75%
    23:00 +12°C° 0.1 mm 4 mps 762 mmHg 77%

    6 April, Monday

    Time Temperature Precipitation Wind Pressure Humidity
    00:00 +11°C° 0.1 mm 4 mps 762 mmHg 79%
    01:00 +11°C° 0.1 mm 4 mps 763 mmHg 80%
    02:00 +10°C° 0 mm 3 mps 763 mmHg 80%
    03:00 +10°C° 0 mm 3 mps 763 mmHg 80%
    04:00 +10°C° 0 mm 3 mps 763 mmHg 80%
    05:00 +10°C° 0 mm 3 mps 764 mmHg 79%
    06:00 +10°C° 0 mm 3 mps 765 mmHg 78%
    07:00 +9°C° 0 mm 3 mps 765 mmHg 77%
    08:00 +11°C° 0 mm 3 mps 766 mmHg 71%
    09:00 +12°C° 0 mm 4 mps 766 mmHg 64%
    10:00 +14°C° 0 mm 4 mps 766 mmHg 58%
    11:00 +14°C° 0 mm 4 mps 766 mmHg 57%
    12:00 +14°C° 0 mm 4 mps 766 mmHg 56%
    13:00 +15°C° 0 mm 4 mps 766 mmHg 55%
    14:00 +15°C° 0 mm 4 mps 766 mmHg 56%
    15:00 +14°C° 0 mm 4 mps 766 mmHg 56%
    16:00 +14°C° 0 mm 4 mps 766 mmHg 57%
    17:00 +14°C° 0 mm 4 mps 766 mmHg 59%
    18:00 +13°C° 0 mm 3 mps 767 mmHg 61%
    19:00 +12°C° 0 mm 3 mps 767 mmHg 62%
    20:00 +12°C° 0 mm 3 mps 767 mmHg 64%
    21:00 +12°C° 0 mm 3 mps 768 mmHg 66%
    22:00 +11°C° 0 mm 3 mps 768 mmHg 68%
    23:00 +11°C° 0 mm 3 mps 768 mmHg 70%
    Show more